Regional Weather Roundup
Issued by NWS

Home | Current Version | Previous Version | Text Only | Print | Product List | Glossary On
Versions: 1 2 3 4 5 6 7 8 9 10 11 12 13 14 15 16 17 18 19 20 21 22 23 24 25 26 27 28 29 30 31 32 33 34 35 36 37 38 39 40 41 42 43 44 45 46 47 48 49 50
000
ASUS44 KFWD 040115
RWRTX
NORTH TEXAS HOURLY WEATHER ROUNDUP
NATIONAL WEATHER SERVICE FORT WORTH TX
800 PM CDT MON AUG 03 2015

NOTE: "FAIR" INDICATES FEW OR NO CLOUDS BELOW 12,000 FEET WITH NO
SIGNIFICANT WEATHER AND/OR OBSTRUCTIONS TO VISIBILITY.

TXZ118-119-040200-
DALLAS/FORT WORTH METROPLEX

CITY           SKY/WX    TMP DP  RH WIND       PRES   REMARKS
DFW AIRPORT    PTCLDY    94  59  31 SE12      29.85S HX  93
DALLAS LOVE    PTCLDY    95  59  30 SE16      29.86R HX  94
FTW MEACHAM    PTCLDY    96  59  29 SE14      29.85R HX  95
DAL-EXECUTIVE  CLEAR     93  58  30 SE13      29.86R HX  92
FTW-ALLIANCE   PTCLDY    93  59  31 SE13      29.85S HX  92
FTW-NAS-JRB    PTCLDY    96  59  29 SE12      29.85S HX  95
ARLINGTON      CLEAR     95  60  31 E13       29.86R HX  95
GRAND PRAIRIE  CLEAR     93  63  36 E12       29.87R HX  94
MESQUITE       CLEAR     95  59  30 SE7       29.87R HX  94
LANCASTER      CLEAR     93  55  27 SE8       29.87S HX  91
$$

TXZ091>094-102>105-117-120-121-131>134-040200-
NORTH CENTRAL TEXAS

CITY           SKY/WX    TMP DP  RH WIND       PRES   REMARKS
SHRMAN/DENISON CLOUDY    91  67  44 CALM      29.89R HX  94
GAINESVILLE    MOCLDY    91  60  36 E8        29.90R HX  90
BOWIE          PTCLDY    88  65  47 CALM      29.89R
DECATUR        PTCLDY    90  57  33 E6        29.88S
DENTON         CLEAR     93  60  33 SE8       29.85S HX  93
MCKINNEY       PTCLDY    92  64  39 SE6       29.87R HX  93
GREENVILLE     PTCLDY    90  59  35 SE3       29.88S
ROCKWALL       CLEAR     92  61  35 SE5       29.87R HX  92
TERRELL        CLEAR     93  62  35 SE7       29.87S HX  93
WAXAHACHIE     CLEAR     92  62  36 SE6       29.88S HX  92
CLEBURNE       CLEAR     95  59  30 E9        29.88S HX  94
GRANBURY       CLEAR     96  58  28 SE8       29.87R HX  95
$$

TXZ083>090-098>101-113>116-127>130-139>142-154-155-040200-
WESTERN NORTH TEXAS

CITY           SKY/WX    TMP DP  RH WIND       PRES   REMARKS
WICHITA FALLS  PTCLDY    87  69  54 SE7       29.87S HX  91
WF-KICKAPOO    PTCLDY    89  68  49 E3        29.88S HX  93
VERNON         PTCLDY    87  65  47 E6        29.89S
ABILENE        CLEAR     93  61  34 SE13      29.89R HX  93
ABILENE-DYESS  CLEAR     93  64  37 SE13      29.87S HX  94
BRECKENRIDGE   CLOUDY    94  60  32 SE7       29.87R HX  93
GRAHAM         PTCLDY    90  67  47 E5        29.86R HX  93
MINERAL WELLS  CLEAR     90  68  48 E3        29.85S HX  94
STEPHENVILLE   CLEAR     91  60  35 SE7       29.91R HX  90
COMANCHE       CLEAR     91  61  36 SE7       29.88S HX  91
COLEMAN        CLEAR     93  62  35 E9        29.89R HX  94
BRADY          CLEAR     93  61  33 SE10      29.89R HX  93
$$

TXZ143>147-156>162-174-175-040200-
CENTRAL TEXAS

CITY           SKY/WX    TMP DP  RH WIND       PRES   REMARKS
WACO           CLEAR     93  59  31 SE8       29.86S HX  92
WACO-TSTC      CLEAR     93  59  31 SE5       29.86S HX  92
HILLSBORO      CLEAR     93  57  29 E7        29.87S HX  92
CORSICANA      CLEAR     92  63  38 SE5       29.88S HX  93
MEXIA          CLEAR     91  63  40 E8        29.87S HX  91
HEARNE         PTCLDY    92  64  40 SE6       29.87S HX  93
CAMERON        CLEAR     92  64  39 SE6       29.86S HX  93
TEMPLE         CLEAR     91  59  33 SE9       29.87S HX  90
KILLEEN        CLEAR     92  58  32 SE13      29.88R HX  90
KILLEEN-SKYLRK   N/A    N/A N/A N/A MISG        N/A
FORT HOOD      CLEAR     92  60  34 SE12      29.87R HX  91
GATESVILLE     CLEAR     93  61  33 CALM      29.90R HX  93
HAMILTON       CLEAR     93  55  27 SE13      29.90R HX  91
LAMPASAS       CLEAR     92  59  33 SE10      29.89R HX  91
$$

TXZ095>097-106>112-122>126-135>138-148>153-164>167-040200-
EAST TEXAS

CITY           SKY/WX    TMP DP  RH WIND       PRES   REMARKS
PARIS          MOCLDY    90  61  37 SE8       29.88S
SULPHUR SPRNGS PTCLDY    93  57  30 SE6       29.89S HX  92
MOUNT PLEASANT CLEAR     90  59  34 E5        29.89S
GILMER         CLEAR     91  62  38 CALM      29.88S HX  91
MINEOLA        CLEAR     91  59  33 CALM      29.88S HX  90
TYLER          CLEAR     94  60  32 SE6       29.88S HX  94
LONGVIEW       CLEAR     91  65  41 SE5       29.87S HX  93
MARSHALL       CLEAR     94  64  37 CALM      29.90S HX  95
ATHENS         CLEAR     90  63  40 SE3       29.87R HX  90
PALESTINE      CLEAR     92  60  33 E5        29.89R HX  92
JACKSONVILLE   CLEAR     91  58  33 CALM      29.91S HX  90
HENDERSON      CLEAR     88  63  42 CALM      29.89S
CENTER         FAIR      89  67  46 CALM      29.87S HX  92
NACOGDOCHES    CLEAR     88  70  55 CALM      29.87S HX  92
LUFKIN         CLEAR     90  66  45 E3        29.87S HX  92
$$

SUPPLEMENTAL OBSERVATIONS (CENTRAL)

CITY           SKY/WX    TMP DP  RH WIND       PRES   REMARKS
PAT MAYSE LAKE   N/A    N/A N/A N/A E5          N/A
GREENVILLE       N/A     90  59  35 S2          N/A
CEDAR HILL       N/A     91  57  31 SE3         N/A  HX  90
LAKE LIMESTONE   N/A     90  59  35 E2          N/A
MCGREGOR         N/A     91  57  31 SE6         N/A  HX  90
TEMPLE           N/A     91  59  33 SE8         N/A  HX  90
$$

SUPPLEMENTAL OBSERVATIONS (WEST)

CITY           SKY/WX    TMP DP  RH WIND       PRES   REMARKS
MILLERS CREEK    N/A     88  68  51 E7          N/A  HX  91
POSSUM KINGDOM   N/A     91  59  33 SE7         N/A  HX  90
GRANBURY         N/A     95  57  28 SE9         N/A  HX  94
COMANCHE         N/A     90  57  33 SE9         N/A
HAMBY            N/A     93  61  33 SE8         N/A  HX  93
IVIE RESERVOIR   N/A     93  55  27 E10         N/A  HX  91
COLORADO BEND    N/A     91  54  27 S10         N/A
$$

SUPPLEMENTAL OBSERVATIONS (EAST)

CITY           SKY/WX    TMP DP  RH WIND       PRES   REMARKS
CLARKSVILLE      N/A    N/A N/A N/A SE2         N/A
TEXARKANA        N/A     84  72  65 CALM        N/A
LINDEN           N/A     90  64  43 E1          N/A  HX  91
CADDO LAKE       N/A     88  70  55 CALM        N/A  HX  92
GILMER           N/A     91  63  38 E1          N/A  HX  92
HENDERSON        N/A    N/A N/A N/A SE1         N/A
LUFKIN           N/A     88  72  58 MISG        N/A  HX  94
N SABINE NF      N/A     86  66  51 MISG        N/A
S SABINE NF      N/A     84  72  65 CALM        N/A
$$

SUPPLEMENTAL OBSERVATIONS ARE A COLLECTION OF AUTOMATED INSTRUMENTS
THAT ARE MAINTAINED BY A VARIETY OF FEDERAL AND STATE AGENCIES.
CERTAIN ELEMENTS...SUCH AS HUMIDITY VALUES AND SUSTAINED WIND
SPEEDS...MAY BE APPROXIMATED.



USA.gov is the U.S. government's official web portal to all federal, state and local government web resources and services.